Temp
-13 -13 -13 -13 -13 -13 -13 -13 -13 -13 -13 -13 -13 -13 -13 -13 -13 -13 -13 -13 -13 -13 -13 -12 -12 -11 -11 -11 -11 -11 -12 -12 -12 -12 -12 -12 -11 -11 -11 -11 -12 -12 -11 -12 -12 -11 -11
-14 -14 -14 -14 -14 -14 -14 -14 -13 -13 -13 -13 -13 -13 -13 -13 -13 -13 -13 -13 -13 -13 -13 -13 -12 -12 -12 -12 -12 -12 -12 -11 -12 -12 -12 -12 -12 -11 -11 -11 -11 -11 -11 -11 -11 -11 -11
-14 -14 -14 -14 -14 -14 -14 -14 -14 -14 -13 -13 -13 -13 -13 -13 -13 -13 -13 -13 -13 -13 -13 -13 -13 -12 -12 -12 -12 -12 -12 -12 -12 -12 -12 -12 -12 -12 -12 -12 -12 -12 -12 -12 -12 -11 -11
-15 -15 -15 -14 -14 -14 -14 -14 -14 -14 -14 -13 -13 -13 -13 -13 -13 -13 -13 -13 -13 -13 -13 -13 -13 -13 -12 -13 -12 -12 -12 -12 -12 -12 -12 -12 -12 -12 -12 -12 -12 -12 -11 -11 -11 -11 -11
-15 -15 -15 -15 -15 -14 -14 -14 -14 -14 -14 -14 -14 -14 -14 -14 -13 -13 -13 -13 -13 -13 -13 -13 -13 -13 -13 -13 -13 -13 -12 -12 -12 -12 -12 -12 -12 -12 -12 -12 -12 -12 -11 -12 -11 -11 -11
-15 -15 -15 -15 -15 -15 -15 -15 -15 -15 -14 -14 -14 -14 -14 -14 -14 -14 -14 -13 -13 -13 -13 -13 -13 -13 -13 -12 -13 -13 -13 -13 -12 -12 -12 -12 -12 -12 -12 -12 -12 -12 -12 -12 -12 -12 -12
-15 -15 -15 -15 -15 -15 -15 -15 -15 -15 -15 -15 -15 -14 -15 -14 -14 -14 -14 -14 -14 -14 -13 -14 -13 -13 -13 -13 -13 -13 -13 -13 -13 -12 -12 -12 -12 -12 -12 -12 -12 -12 -12 -13 -13 -13 -13
-16 -16 -16 -15 -16 -15 -15 -15 -15 -15 -15 -15 -15 -15 -15 -15 -15 -14 -14 -14 -14 -14 -14 -14 -14 -13 -14 -13 -13 -13 -13 -13 -13 -13 -13 -13 -13 -12 -12 -12 -12 -13 -13 -13 -13 -13 -13
-16 -16 -16 -16 -16 -16 -16 -16 -16 -16 -16 -15 -15 -15 -15 -15 -15 -15 -15 -15 -14 -15 -15 -14 -15 -14 -15 -14 -13 -14 -13 -14 -14 -13 -14 -13 -13 -13 -13 -12 -13 -13 -13 -14 -14 -14 -14
-17 -17 -16 -16 -16 -16 -16 -16 -16 -16 -16 -16 -16 -15 -15 -16 -17 -16 -16 -16 -16 -17 -17 -14 -15 -15 -15 -14 -14 -15 -13 -14 -14 -14 -14 -14 -14 -13 -13 -13 -13 -14 -13 -14 -14 -15 -14
-18 -18 -18 -17 -17 -17 -17 -17 -17 -16 -16 -16 -16 -16 -15 -18 -18 -16 -17 -16 -18 -19 -20 -16 -15 -15 -15 -15 -15 -15 -15 -14 -15 -15 -15 -15 -14 -14 -14 -14 -14 -14 -14 -15 -15 -15 -15
-19 -19 -19 -19 -19 -19 -19 -18 -18 -18 -18 -18 -17 -18 -17 -19 -20 -18 -18 -19 -20 -20 -20 -18 -16 -16 -16 -16 -16 -16 -16 -15 -15 -16 -15 -16 -15 -15 -15 -14 -14 -15 -16 -16 -15 -15 -15
-20 -20 -20 -20 -20 -20 -20 -20 -20 -19 -19 -19 -19 -19 -19 -21 -21 -20 -20 -21 -21 -22 -18 -19 -18 -18 -18 -17 -17 -17 -16 -16 -16 -16 -16 -17 -16 -15 -15 -15 -15 -16 -16 -16 -16 -16 -16
-21 -21 -21 -21 -21 -21 -21 -21 -21 -21 -20 -21 -21 -21 -20 -21 -21 -21 -21 -21 -22 -20 -20 -19 -19 -19 -19 -19 -18 -18 -17 -17 -17 -16 -18 -17 -17 -16 -16 -16 -16 -16 -16 -17 -16 -18 -19
-21 -21 -21 -21 -21 -21 -21 -21 -22 -21 -21 -21 -22 -22 -21 -21 -21 -21 -22 -22 -21 -20 -20 -20 -20 -20 -20 -19 -18 -18 -18 -18 -17 -17 -17 -17 -18 -16 -16 -17 -17 -17 -17 -17 -18 -19 -19
-22 -21 -21 -21 -21 -21 -21 -22 -22 -22 -22 -22 -22 -22 -21 -21 -21 -21 -22 -21 -20 -20 -20 -22 -21 -19 -19 -20 -19 -20 -19 -18 -18 -17 -17 -18 -19 -17 -18 -17 -17 -17 -17 -18 -19 -19 -19
-22 -22 -22 -22 -22 -22 -22 -22 -22 -22 -21 -22 -22 -21 -21 -21 -21 -21 -22 -21 -20 -20 -20 -20 -20 -20 -20 -20 -20 -20 -19 -19 -18 -18 -18 -18 -19 -19 -18 -18 -18 -17 -18 -19 -19 -19 -19
-23 -22 -22 -22 -22 -22 -23 -22 -22 -22 -21 -21 -21 -21 -20 -21 -22 -21 -21 -21 -20 -21 -21 -21 -21 -21 -20 -21 -21 -21 -19 -19 -19 -19 -19 -21 -21 -19 -19 -18 -19 -18 -18 -19 -19 -19 -20
-23 -23 -22 -22 -22 -22 -23 -22 -21 -21 -21 -21 -21 -21 -21 -21 -21 -21 -21 -21 -21 -21 -21 -21 -21 -21 -20 -21 -21 -20 -20 -20 -19 -20 -21 -20 -19 -19 -19 -19 -18 -19 -19 -20 -19 -19 -19
-24 -23 -23 -23 -22 -22 -23 -22 -21 -20 -19 -20 -20 -20 -20 -20 -21 -21 -21 -21 -21 -21 -21 -21 -21 -21 -21 -21 -21 -20 -20 -19 -20 -21 -22 -20 -19 -19 -19 -19 -19 -19 -19 -20 -20 -19 -19
-24 -23 -23 -23 -23 -22 -22 -21 -21 -20 -19 -19 -20 -19 -19 -19 -20 -20 -21 -21 -21 -21 -21 -21 -21 -21 -21 -20 -21 -21 -20 -20 -22 -21 -20 -20 -20 -19 -19 -19 -19 -20 -20 -19 -19 -19 -19
-24 -24 -23 -23 -23 -23 -22 -22 -21 -21 -20 -20 -20 -19 -20 -20 -20 -20 -21 -21 -21 -21 -21 -21 -21 -21 -21 -21 -21 -20 -20 -22 -22 -21 -20 -20 -20 -20 -19 -19 -20 -20 -21 -20 -20 -19 -19
-25 -24 -24 -24 -23 -23 -23 -22 -22 -22 -21 -21 -20 -21 -21 -21 -21 -21 -21 -21 -21 -21 -21 -21 -21 -21 -20 -20 -21 -20 -21 -21 -21 -21 -21 -20 -20 -19 -19 -20 -20 -20 -21 -21 -20 -20 -20
-25 -25 -24 -24 -24 -23 -23 -22 -21 -22 -22 -22 -21 -21 -21 -21 -21 -21 -21 -22 -22 -21 -21 -21 -21 -21 -20 -21 -22 -21 -22 -21 -22 -21 -20 -20 -20 -19 -20 -20 -20 -20 -21 -21 -21 -21 -20
-26 -26 -25 -24 -24 -24 -23 -22 -21 -21 -22 -21 -21 -22 -21 -21 -21 -21 -21 -21 -21 -21 -21 -21 -21 -21 -21 -21 -22 -22 -22 -22 -21 -21 -20 -20 -20 -20 -20 -20 -20 -21 -21 -21 -21 -21 -21
-26 -26 -25 -25 -24 -24 -23 -22 -22 -21 -21 -22 -21 -21 -21 -21 -21 -21 -21 -21 -21 -21 -21 -20 -20 -21 -22 -22 -22 -22 -22 -22 -21 -21 -20 -20 -20 -20 -20 -21 -21 -21 -22 -22 -21 -21 -21
-26 -26 -26 -25 -24 -23 -23 -22 -22 -22 -22 -22 -21 -21 -21 -21 -21 -21 -20 -21 -21 -21 -21 -21 -21 -22 -22 -23 -23 -23 -22 -21 -21 -21 -20 -20 -20 -20 -20 -21 -21 -21 -22 -22 -22 -21 -21
-26 -26 -26 -25 -24 -24 -23 -22 -22 -22 -22 -22 -21 -21 -21 -20 -20 -20 -20 -21 -21 -21 -21 -21 -21 -22 -23 -23 -23 -22 -21 -21 -21 -20 -20 -20 -20 -20 -20 -21 -21 -22 -22 -22 -22 -22 -22
-27 -26 -26 -25 -25 -24 -23 -22 -22 -22 -22 -22 -22 -22 -20 -20 -21 -21 -21 -20 -21 -20 -21 -22 -24 -23 -23 -23 -22 -22 -21 -21 -21 -21 -20 -20 -20 -20 -21 -21 -22 -23 -23 -23 -23 -23 -22
Height
5744 5747 5748 5751 5753 5755 5756 5757 5760 5762 5764 5764 5764 5765 5767 5768 5768 5770 5769 5770 5771 5773 5774 5774 5773 5775 5775 5778 5781 5781 5783 5784 5784 5783 5782 5781 5781 5781 5781 5781 5780 5780 5782 5782 5781 5781 5779
5733 5736 5740 5741 5744 5746 5748 5749 5750 5752 5756 5757 5759 5759 5760 5761 5762 5765 5765 5765 5766 5767 5768 5770 5769 5770 5771 5772 5775 5775 5776 5778 5779 5779 5779 5778 5777 5777 5777 5777 5776 5776 5776 5775 5773 5772 5771
5723 5725 5728 5731 5733 5736 5738 5740 5743 5744 5746 5749 5749 5752 5753 5754 5755 5757 5759 5760 5759 5762 5763 5763 5764 5764 5766 5767 5768 5771 5770 5771 5772 5774 5775 5774 5773 5773 5773 5772 5771 5769 5767 5765 5764 5762 5762
5710 5713 5716 5720 5722 5724 5727 5729 5731 5734 5736 5738 5740 5741 5743 5745 5747 5748 5750 5752 5754 5754 5756 5756 5757 5758 5758 5763 5762 5764 5765 5765 5766 5766 5767 5768 5767 5767 5765 5764 5762 5760 5758 5755 5755 5755 5753
5697 5701 5703 5706 5710 5712 5714 5718 5719 5721 5725 5728 5730 5730 5732 5734 5737 5738 5739 5742 5744 5746 5748 5748 5749 5751 5751 5756 5755 5757 5758 5759 5759 5760 5760 5761 5760 5759 5758 5757 5756 5753 5752 5750 5748 5746 5744
5682 5686 5689 5692 5696 5699 5702 5704 5708 5710 5711 5716 5718 5720 5720 5721 5724 5727 5727 5730 5732 5735 5737 5739 5740 5744 5745 5747 5748 5748 5750 5751 5752 5753 5752 5752 5752 5752 5752 5750 5750 5747 5743 5743 5742 5742 5738
5667 5672 5675 5678 5681 5685 5688 5691 5693 5697 5700 5700 5702 5706 5707 5708 5709 5712 5716 5717 5721 5722 5725 5728 5728 5733 5733 5736 5741 5740 5741 5742 5743 5745 5745 5744 5746 5744 5743 5743 5742 5740 5738 5735 5733 5732 5731
5654 5655 5659 5663 5667 5670 5672 5677 5679 5681 5685 5687 5689 5691 5693 5693 5693 5696 5700 5703 5708 5709 5710 5714 5715 5721 5723 5725 5729 5731 5733 5733 5734 5735 5735 5737 5735 5736 5736 5735 5732 5729 5727 5727 5725 5724 5721
5636 5640 5643 5647 5649 5654 5656 5659 5663 5666 5668 5670 5673 5676 5678 5677 5677 5682 5686 5687 5692 5691 5692 5701 5703 5708 5711 5714 5717 5719 5724 5723 5723 5725 5725 5725 5725 5726 5726 5726 5724 5721 5718 5716 5715 5712 5711
5618 5622 5627 5630 5633 5636 5640 5641 5645 5649 5652 5653 5655 5659 5662 5662 5661 5668 5671 5674 5676 5676 5671 5687 5689 5694 5697 5701 5704 5706 5709 5714 5714 5715 5714 5715 5717 5716 5715 5715 5714 5711 5708 5705 5704 5702 5701
5603 5606 5608 5612 5615 5619 5622 5625 5628 5632 5634 5636 5638 5640 5645 5645 5643 5654 5658 5658 5659 5662 5653 5669 5674 5681 5683 5690 5691 5695 5697 5700 5702 5703 5704 5707 5705 5706 5705 5705 5704 5702 5700 5697 5695 5692 5690
5585 5588 5592 5596 5600 5603 5606 5608 5612 5614 5617 5618 5622 5624 5628 5628 5630 5639 5644 5645 5647 5646 5640 5652 5660 5667 5670 5676 5677 5677 5685 5688 5690 5691 5693 5694 5694 5696 5696 5695 5695 5693 5691 5689 5686 5683 5681
5569 5573 5577 5581 5585 5589 5592 5593 5597 5599 5601 5603 5606 5608 5614 5616 5623 5626 5630 5630 5629 5626 5630 5639 5647 5656 5658 5663 5663 5667 5675 5677 5679 5681 5683 5683 5684 5686 5687 5685 5685 5685 5683 5681 5678 5673 5674
5557 5560 5564 5567 5570 5574 5576 5579 5581 5583 5586 5589 5591 5591 5600 5608 5609 5613 5616 5616 5608 5624 5626 5632 5639 5644 5649 5653 5655 5656 5662 5665 5669 5670 5669 5670 5674 5677 5678 5677 5676 5676 5676 5673 5670 5669 5667
5543 5548 5551 5555 5557 5559 5560 5562 5564 5568 5573 5575 5574 5578 5585 5594 5597 5604 5604 5597 5606 5624 5623 5624 5626 5631 5639 5640 5646 5648 5652 5656 5659 5659 5661 5660 5663 5664 5669 5668 5669 5669 5667 5665 5662 5661 5658
5529 5533 5537 5542 5544 5544 5545 5545 5549 5554 5559 5561 5559 5565 5575 5581 5585 5588 5585 5590 5604 5614 5615 5617 5619 5623 5628 5631 5635 5639 5641 5646 5646 5649 5649 5650 5655 5654 5658 5660 5661 5661 5659 5658 5656 5653 5651
5515 5520 5524 5529 5532 5531 5531 5531 5535 5539 5543 5545 5543 5547 5560 5565 5569 5568 5570 5587 5598 5603 5607 5610 5610 5615 5618 5620 5626 5629 5634 5635 5636 5639 5638 5641 5645 5649 5651 5653 5652 5652 5652 5649 5649 5648 5644
5501 5506 5512 5517 5518 5518 5516 5518 5521 5523 5525 5527 5529 5533 5543 5550 5551 5556 5566 5580 5589 5593 5596 5601 5605 5608 5610 5613 5617 5621 5625 5625 5626 5629 5630 5633 5639 5642 5645 5644 5645 5645 5643 5642 5641 5642 5639
5487 5494 5500 5503 5504 5507 5505 5507 5508 5508 5511 5515 5518 5522 5526 5537 5538 5548 5561 5569 5576 5582 5585 5593 5599 5598 5601 5605 5609 5613 5615 5617 5618 5619 5623 5630 5634 5636 5638 5639 5638 5637 5635 5636 5635 5634 5633
5474 5481 5487 5490 5492 5496 5494 5496 5494 5494 5495 5498 5504 5511 5517 5524 5532 5541 5551 5560 5565 5573 5578 5586 5590 5591 5596 5598 5601 5605 5611 5611 5610 5613 5621 5624 5629 5631 5634 5633 5632 5631 5630 5629 5628 5627 5625
5463 5470 5475 5477 5482 5484 5485 5485 5484 5485 5484 5488 5494 5503 5514 5519 5526 5535 5545 5551 5559 5562 5571 5577 5580 5587 5589 5592 5596 5601 5603 5602 5604 5610 5616 5620 5623 5625 5625 5626 5626 5624 5622 5622 5622 5620 5618
5453 5460 5465 5468 5472 5476 5475 5475 5476 5479 5485 5492 5498 5503 5509 5517 5524 5533 5538 5543 5551 5558 5564 5570 5576 5580 5584 5586 5592 5593 5594 5596 5602 5608 5611 5614 5617 5618 5620 5620 5620 5619 5618 5617 5617 5614 5613
5442 5449 5454 5460 5463 5467 5469 5470 5473 5478 5485 5490 5495 5501 5507 5515 5520 5526 5534 5542 5549 5551 5559 5566 5569 5571 5575 5580 5585 5588 5589 5593 5598 5603 5607 5610 5611 5613 5615 5614 5613 5614 5614 5613 5611 5609 5610
5431 5439 5446 5452 5454 5458 5462 5465 5468 5474 5483 5490 5494 5499 5505 5512 5517 5525 5531 5537 5542 5548 5553 5559 5563 5568 5570 5574 5578 5582 5586 5590 5594 5599 5602 5605 5607 5608 5608 5608 5607 5609 5609 5608 5606 5606 5606
5424 5432 5438 5443 5447 5451 5454 5457 5465 5470 5478 5485 5492 5497 5504 5509 5516 5521 5528 5534 5539 5543 5549 5553 5555 5558 5564 5567 5572 5576 5581 5586 5591 5595 5597 5600 5601 5603 5603 5603 5603 5604 5603 5603 5602 5603 5602
5418 5425 5430 5435 5439 5444 5448 5453 5460 5468 5474 5480 5489 5495 5503 5507 5512 5520 5525 5530 5533 5538 5542 5541 5547 5553 5557 5562 5568 5572 5580 5585 5589 5592 5594 5596 5597 5598 5599 5599 5596 5597 5596 5596 5596 5597 5597
5412 5419 5425 5430 5433 5437 5442 5449 5458 5465 5471 5477 5484 5492 5498 5503 5508 5513 5518 5523 5527 5529 5533 5537 5542 5547 5553 5559 5565 5571 5577 5582 5584 5588 5590 5592 5592 5594 5593 5593 5591 5591 5591 5591 5591 5595 5592
5407 5414 5420 5425 5430 5434 5439 5445 5453 5459 5467 5473 5481 5487 5493 5498 5503 5508 5511 5515 5518 5523 5529 5535 5538 5542 5549 5556 5562 5569 5574 5579 5581 5583 5585 5587 5588 5588 5588 5587 5585 5585 5584 5585 5585 5584 5585
5403 5410 5416 5420 5426 5431 5436 5443 5449 5455 5463 5470 5478 5482 5487 5494 5501 5507 5510 5513 5516 5520 5526 5529 5537 5542 5551 5556 5562 5567 5572 5576 5578 5579 5581 5583 5584 5583 5582 5581 5578 5577 5577 5576 5577 5578 5579
Wind_Speed
51 50 49 47 45 42 40 38 36 35 33 33 31 31 29 27 27 27 25 27 26 23 22 24 21 19 17 18 13 19 17 19 20 20 21 19 18 19 22 23 25 27 25 28 32 34 37
50 49 48 49 47 44 42 42 40 39 38 36 36 37 35 34 32 31 29 28 27 28 27 27 24 22 21 21 19 19 18 17 21 24 24 23 19 20 23 24 26 27 28 29 32 35 38
50 49 50 50 49 48 47 45 44 43 42 42 41 40 41 39 39 38 36 36 33 32 32 30 30 27 26 24 24 23 22 20 19 21 22 24 26 28 25 27 28 31 33 33 33 39 39
56 57 57 55 52 52 52 50 49 48 48 48 47 46 45 45 46 45 44 42 42 40 38 36 36 35 32 29 28 28 28 27 26 26 27 28 31 31 31 32 35 37 39 41 40 41 43
60 59 58 58 58 57 56 57 55 53 55 55 53 52 51 51 52 52 51 50 47 47 45 44 44 41 39 31 35 33 34 33 32 30 30 30 31 33 35 36 38 41 42 43 44 44 46
63 64 64 62 62 62 61 60 60 59 57 61 60 58 57 57 56 58 57 56 56 53 52 51 49 49 46 43 38 39 39 38 37 35 34 34 34 35 38 43 43 45 48 45 44 44 48
67 67 68 66 65 65 66 64 63 63 63 63 63 62 61 60 59 60 62 61 60 60 59 55 56 52 53 49 47 45 43 43 42 41 41 39 38 38 43 46 48 49 46 46 45 44 46
75 74 74 73 72 72 70 71 70 69 69 66 64 63 64 63 63 63 62 62 61 63 62 60 59 58 57 56 52 52 51 48 48 46 46 44 44 43 43 47 49 49 48 47 46 46 49
77 76 75 76 74 75 73 72 72 72 71 69 68 68 67 68 68 65 64 66 62 65 67 63 60 63 56 57 57 56 55 52 51 51 47 50 48 48 45 48 49 48 47 45 45 45 47
70 70 71 70 68 69 71 69 71 71 71 69 68 68 69 69 68 65 64 64 63 62 67 64 63 61 58 60 60 54 58 52 52 52 51 51 47 49 47 47 47 46 47 43 44 45 47
66 66 65 64 62 61 62 63 64 66 66 67 68 68 65 62 64 66 63 62 60 57 59 66 65 62 60 59 56 53 54 56 54 52 52 49 50 45 45 43 42 42 42 40 41 44 47
59 60 60 59 59 58 58 59 61 61 63 64 65 63 63 56 51 56 55 50 49 53 55 64 66 61 53 54 56 53 53 48 47 49 50 48 48 44 43 42 38 40 38 38 41 42 44
50 52 53 55 56 56 57 58 58 57 57 57 60 59 54 48 44 45 44 46 48 53 64 63 60 56 47 41 46 49 47 48 44 46 48 45 44 42 39 37 37 36 35 36 37 40 39
47 46 46 48 50 54 57 60 58 58 58 55 54 56 51 45 45 45 45 47 52 48 47 51 48 49 58 50 38 42 48 38 36 42 42 43 39 36 37 33 34 33 31 32 34 30 27
48 45 43 45 47 51 54 57 59 61 60 57 58 58 56 51 47 47 47 53 49 35 40 42 43 46 50 49 53 38 35 45 44 41 38 36 33 37 31 29 29 29 29 33 30 27 27
50 47 46 45 43 48 54 56 58 58 57 58 60 61 56 54 52 53 55 54 46 40 42 42 38 34 44 55 51 49 46 42 41 48 40 39 29 34 27 27 25 26 28 28 24 27 26
54 50 48 46 47 48 52 53 51 52 53 54 58 59 55 59 60 61 60 52 48 47 45 37 39 42 42 46 49 47 39 37 43 45 40 34 27 26 26 23 23 24 25 27 24 24 30
54 52 50 48 49 48 46 47 47 47 49 50 55 59 55 56 62 62 60 51 47 47 48 50 50 44 44 43 45 48 43 40 40 37 30 21 21 25 21 22 19 25 26 25 26 24 27
52 51 51 47 51 44 41 43 42 44 45 50 52 54 56 57 62 56 54 51 49 49 49 46 39 42 41 41 38 41 35 42 37 21 21 15 23 20 19 21 22 23 25 26 27 29 30
47 47 49 48 47 39 33 34 35 33 42 45 41 48 52 54 54 52 50 46 49 49 47 41 43 47 41 35 39 40 41 42 24 21 15 21 22 22 15 21 23 26 27 25 27 28 28
45 45 46 46 43 37 29 33 26 32 30 41 32 34 37 40 46 43 44 46 45 47 44 43 43 38 35 31 30 40 40 32 19 16 21 21 20 21 20 20 23 27 27 24 25 28 26
46 45 46 45 39 31 33 29 23 19 24 36 35 30 31 32 37 36 43 43 42 43 40 42 38 43 38 38 30 25 21 12 17 20 17 17 20 18 16 19 23 24 21 24 24 22 21
45 44 43 38 36 30 29 24 24 22 30 25 22 22 24 27 31 35 38 38 37 42 42 30 36 37 35 31 28 26 23 22 18 16 19 22 18 18 15 20 23 22 23 24 20 19 18
42 40 35 32 32 32 30 23 37 34 27 28 21 23 24 26 24 25 24 34 38 34 36 35 37 39 43 31 25 26 26 24 18 22 20 18 16 15 16 17 21 20 22 18 15 17 16
38 32 32 32 31 30 31 26 35 39 37 37 37 31 25 25 28 26 18 22 31 31 33 39 45 48 38 36 31 27 23 16 19 20 17 16 15 16 16 18 19 20 18 18 15 14 15
33 31 31 28 30 30 32 30 33 38 36 41 45 43 34 33 34 34 36 33 29 34 38 41 35 33 33 34 31 24 19 18 21 18 16 15 14 14 16 18 25 19 21 21 24 21 20
31 30 27 28 29 29 31 33 33 33 36 40 40 38 31 34 33 32 33 30 31 34 34 30 32 35 34 34 25 22 21 22 20 16 15 13 13 14 17 20 26 27 27 26 26 26 26
30 28 27 27 27 30 33 33 32 33 31 33 36 36 37 35 39 34 28 26 26 29 29 30 33 35 35 32 25 23 24 20 15 13 9 11 12 14 18 21 26 24 27 29 28 26 26
30 28 26 27 27 29 32 32 33 34 30 33 33 34 38 36 28 24 21 22 26 26 26 32 33 31 28 24 25 25 21 14 14 11 11 13 13 16 19 22 25 26 27 30 30 29 26
Wind_Direction
257 257 261 261 261 258 257 257 258 260 261 263 262 264 267 265 264 264 260 261 260 259 260 260 257 262 260 267 270 274 271 276 284 284 284 283 283 288 289 289 287 288 284 278 278 277 274
257 258 261 261 259 257 257 259 258 259 260 260 261 264 265 265 266 266 266 267 264 258 263 265 261 261 262 262 265 262 270 283 289 284 288 278 281 289 291 291 289 289 286 285 285 281 279
256 259 259 258 258 259 258 258 260 260 260 261 262 261 264 264 266 266 266 267 265 264 264 261 262 260 263 264 261 268 268 274 279 287 282 272 276 288 291 290 296 294 294 294 290 291 290
257 259 259 259 258 259 260 260 260 261 262 262 262 262 263 265 266 266 266 264 266 264 266 265 264 261 259 263 265 269 270 276 277 281 282 281 284 290 295 301 305 306 302 298 296 293 292
257 257 256 257 259 259 259 262 262 263 264 266 266 266 267 266 267 267 266 265 263 264 263 265 267 265 262 262 267 268 271 275 275 278 282 284 286 293 297 298 303 302 297 296 295 296 294
257 259 258 259 259 261 261 262 264 265 263 265 266 266 267 268 268 268 266 265 265 263 262 262 262 265 265 266 265 267 271 273 273 274 276 281 283 288 292 294 298 300 296 292 288 287 289
258 259 260 261 260 261 264 264 264 267 266 265 266 268 268 268 269 268 267 266 264 264 263 263 262 262 263 261 266 267 268 272 273 273 275 273 276 280 286 293 293 294 288 286 284 284 285
260 260 261 262 263 264 263 264 265 265 265 264 265 267 268 267 266 266 265 264 264 264 261 262 263 261 262 263 263 264 263 267 268 272 273 274 276 276 281 284 289 292 287 284 283 284 286
262 262 262 262 262 264 263 264 265 265 264 263 264 264 262 264 264 263 263 264 263 264 263 258 262 262 264 262 264 266 264 266 267 268 270 271 276 275 277 279 284 285 283 282 284 287 289
263 263 263 263 263 263 264 262 263 263 264 263 262 261 260 262 262 262 262 263 263 264 264 258 260 261 264 263 263 263 264 268 267 267 268 268 272 275 277 280 282 282 281 284 287 289 294
264 262 261 261 261 261 260 259 258 259 257 258 258 257 256 259 259 258 260 259 259 259 257 259 258 258 258 261 260 257 264 268 268 266 266 269 269 270 272 275 280 280 282 286 290 296 296
260 260 261 260 259 259 258 256 255 254 255 255 254 256 256 258 259 259 261 262 258 254 254 259 257 256 256 255 254 259 264 257 258 262 265 264 266 267 269 273 276 279 282 288 293 297 299
262 262 262 261 260 259 259 257 255 253 253 254 256 256 255 254 255 254 251 247 247 246 253 252 255 250 249 253 254 254 253 254 254 260 264 260 259 261 267 271 274 277 282 290 296 298 299
259 261 263 263 262 261 257 257 255 254 254 254 256 257 256 250 242 243 244 244 243 252 254 263 258 253 248 250 247 248 246 252 267 265 249 250 256 261 262 271 272 277 283 292 292 290 283
255 256 260 265 266 263 258 257 255 253 253 252 251 251 252 251 246 240 242 243 249 254 257 261 256 256 247 247 241 252 258 255 256 261 251 253 249 259 263 261 268 276 288 291 285 282 277
252 252 259 265 267 263 260 258 256 254 254 251 252 252 250 250 248 241 242 243 245 246 248 250 249 256 251 249 249 257 261 258 253 255 247 249 247 254 260 261 267 277 288 283 275 282 284
252 252 258 264 265 265 260 260 258 255 252 249 248 249 246 244 243 242 242 245 245 244 247 236 257 263 259 253 251 247 252 252 250 249 241 242 239 247 251 261 268 284 279 270 267 286 284
253 250 254 258 260 266 263 260 258 254 249 246 247 243 242 239 240 238 241 242 240 240 242 242 250 262 261 260 254 262 258 271 260 241 238 232 239 248 244 259 270 280 277 262 266 289 288
251 250 250 255 259 267 263 262 257 251 246 242 244 246 241 237 237 237 236 237 237 237 242 244 253 259 263 256 259 259 280 260 247 221 226 229 235 241 253 267 274 273 271 263 265 279 286
248 250 249 249 258 268 264 261 253 238 235 237 226 232 239 235 234 232 231 233 236 238 241 248 241 257 251 248 257 249 265 261 221 224 220 228 229 231 217 250 269 274 269 267 268 280 281
244 244 245 250 258 271 254 234 223 226 217 210 227 243 235 233 230 229 228 233 232 236 241 240 247 244 252 254 254 253 263 247 201 219 223 223 226 232 243 255 264 271 279 272 270 279 275
241 239 240 249 257 260 243 236 208 195 202 221 233 232 220 218 229 224 225 229 229 236 235 244 241 250 247 256 253 245 235 200 211 218 225 232 233 236 246 259 259 262 267 279 282 275 271
235 236 240 246 251 236 238 233 187 194 211 205 203 202 204 208 216 220 227 231 233 234 233 241 237 249 244 246 243 235 208 208 211 213 225 232 234 241 246 260 266 265 256 264 281 262 263
227 232 236 239 236 230 223 209 182 180 190 200 198 195 200 199 206 216 226 223 223 242 235 243 240 244 255 243 218 217 208 205 204 225 223 228 234 246 254 264 268 279 265 268 275 257 259
224 225 230 228 225 226 214 203 187 184 186 195 206 209 209 205 214 213 221 239 238 243 246 246 248 250 236 227 211 202 186 198 216 223 223 227 238 247 253 266 272 269 278 265 264 260 265
216 218 222 221 220 214 210 204 187 187 195 208 213 221 208 214 222 229 232 246 239 241 244 248 246 239 229 211 193 177 199 209 219 219 221 230 239 252 258 256 261 274 269 268 262 266 271
210 211 211 214 215 206 213 204 190 196 207 211 216 216 218 219 220 229 237 239 236 236 243 242 222 205 202 186 174 193 204 210 216 213 221 229 243 257 260 260 262 266 269 268 269 266 267
205 203 203 207 204 210 207 201 195 199 200 202 207 215 219 218 221 225 228 226 225 225 223 212 207 198 184 174 185 196 204 206 217 223 230 243 262 268 270 264 260 267 266 265 264 264 263
200 197 201 200 203 200 197 196 196 197 197 197 194 199 211 217 219 225 236 233 222 218 209 190 177 177 173 188 192 201 202 199 215 228 244 258 273 273 275 276 275 269 267 267 267 262 264